This is the latest recevied weather packets stored in our database for station/object K6JWN. If no packets are shown the sender has not sent any weather packets the latest 10 day(s).
| Time | Temp. | Humidity | Pressure | Rain* | Wind** | Luminosity | Snow |
|---|---|---|---|---|---|---|---|
| 1777785137 | 13.33° C | 63% | 1010.7 hPa | 0 mm | - | - | - |
| 1777784537 | 13.33° C | 63% | 1010.7 hPa | 0 mm | - | - | - |
| 1777783938 | 13.33° C | 63% | 1010.6 hPa | 0 mm | - | - | - |
| 1777783337 | 13.89° C | 62% | 1010.5 hPa | 0 mm | - | - | - |
| 1777782738 | 13.89° C | 62% | 1010.5 hPa | 0 mm | - | - | - |
| 1777782138 | 14.44° C | 63% | 1010.3 hPa | 0 mm | - | - | - |
| 1777781537 | 14.44° C | 62% | 1010.2 hPa | 0 mm | - | - | - |
| 1777780937 | 14.44° C | 62% | 1010.2 hPa | 0 mm | - | - | - |
| 1777780337 | 15° C | 61% | 1009.8 hPa | 0 mm | - | - | - |
| 1777779737 | 15° C | 61% | 1009.7 hPa | 0 mm | - | - | - |
| 1777779137 | 15.56° C | 61% | 1009.8 hPa | 0 mm | - | - | - |
| 1777778537 | 15.56° C | 61% | 1009.7 hPa | 0 mm | - | - | - |
| 1777777937 | 15.56° C | 60% | 1009.5 hPa | 0 mm | - | - | - |
| 1777777337 | 16.11° C | 59% | 1009.4 hPa | 0 mm | - | - | - |
| 1777776737 | 16.11° C | 58% | 1009.4 hPa | 0 mm | - | - | - |
| 1777776137 | 16.67° C | 57% | 1009.3 hPa | 0 mm | - | - | - |
| 1777775537 | 16.67° C | 56% | 1009.4 hPa | 0 mm | - | - | - |
| 1777774938 | 17.22° C | 55% | 1009.4 hPa | 0 mm | - | - | - |
| 1777774337 | 17.78° C | 56% | 1009.3 hPa | 0 mm | - | - | - |
| 1777773737 | 17.78° C | 55% | 1009.2 hPa | 0 mm | - | - | - |
| 1777773138 | 18.33° C | 54% | 1009.3 hPa | 0 mm | - | - | - |
| 1777772537 | 18.33° C | 53% | 1009.3 hPa | 0 mm | - | - | - |
| 1777771937 | 18.33° C | 52% | 1009.5 hPa | 0 mm | - | - | - |
| 1777771337 | 18.89° C | 53% | 1009.3 hPa | 0 mm | - | - | - |
| 1777770737 | 19.44° C | 51% | 1009.3 hPa | 0 mm | - | - | - |
* Rain latest hour (hover to see other rain measurements)
** Current wind speed in m/s (hover to see current wind gust speed)